| time (UTC) | temp F | wind direction | speed MPH | gust MPH | rain 1hr in | rain 24hr in | rain mn in | humidity % | barometer mb |
| 20260906090648 | 73 | 88 | 0.0 | 0.0 | 0.00 | 0.00 | 0.00 | 100 | 1010.7 |
| 20260906090146 | 73 | 88 | 0.0 | 2.0 | 0.00 | 0.00 | 0.00 | 100 | 1010.5 |
| 20260906090133 | 73 | 88 | 0.0 | 2.0 | 0.00 | 0.00 | 0.00 | 100 | 1010.4 |
| 20260906085115 | 73 | 81 | 0.0 | 0.0 | 0.00 | 0.00 | 0.00 | 100 | 1010.4 |
| 20260906084603 | 73 | 80 | 0.0 | 0.0 | 0.00 | 0.00 | 0.00 | 100 | 1010.4 |
| 20260906084106 | 73 | 80 | 0.0 | 0.0 | 0.00 | 0.00 | 0.00 | 100 | 1010.5 |
| 20260906083552 | 73 | 80 | 0.0 | 0.0 | 0.00 | 0.00 | 0.00 | 1 | 1010.4 |
| 20260906083039 | 73 | 80 | 0.0 | 0.0 | 0.00 | 0.00 | 0.00 | 1 | 1010.4 |
| 20260906082524 | 74 | 80 | 0.0 | 0.0 | 0.00 | 0.00 | 0.00 | 100 | 1010.3 |
| 20260906082017 | 74 | 80 | 0.0 | 0.0 | 0.00 | 0.00 | 0.00 | 1 | 1010.2 |
| 20260906081517 | 74 | 80 | 0.0 | 0.0 | 0.00 | 0.00 | 0.00 | 1 | 1010.3 |
| 20260906081010 | 74 | 80 | 0.0 | 0.0 | 0.00 | 0.00 | 0.00 | 1 | 1010.3 |
| 20260906080507 | 74 | 80 | 0.0 | 3.0 | 0.00 | 0.00 | 0.00 | 100 | 1010.2 |
| 20260906080002 | 74 | 80 | 0.0 | 3.0 | 0.00 | 0.00 | 0.00 | 100 | 1010.3 |
| 20260906075504 | 74 | 153 | 0.0 | 1.0 | 0.00 | 0.00 | 0.00 | 1 | 1010.2 |
| 20260906074954 | 74 | 153 | 0.0 | 1.0 | 0.00 | 0.00 | 0.00 | 2 | 1010.2 |
| 20260906074450 | 74 | 153 | 0.0 | 3.0 | 0.00 | 0.00 | 0.00 | 1 | 1010.0 |
| 20260906073935 | 74 | 111 | 0.0 | 3.0 | 0.00 | 0.00 | 0.00 | 100 | 1010.0 |
| 20260906073433 | 74 | 75 | 0.0 | 2.0 | 0.00 | 0.00 | 0.00 | 100 | 1010.1 |
| 20260906072918 | 74 | 71 | 0.0 | 1.0 | 0.00 | 0.00 | 0.00 | 100 | 1010.1 |
| 20260906072642 | 74 | 71 | 0.0 | 3.0 | 0.00 | 0.00 | 0.00 | 1 | 1010.1 |
| 20260906071911 | 74 | 71 | 0.0 | 3.0 | 0.00 | 0.00 | 0.00 | 3 | 1010.1 |
| 20260906071356 | 73 | 71 | 0.0 | 2.0 | 0.00 | 0.00 | 0.00 | 4 | 1010.1 |
| 20260906070850 | 73 | 71 | 0.0 | 2.0 | 0.00 | 0.00 | 0.00 | 3 | 1010.1 |
| 20260906070346 | 73 | 71 | 0.0 | 0.0 | 0.00 | 0.00 | 0.00 | 3 | 1010.0 |
| 20260906065843 | 73 | 71 | 0.0 | 2.0 | 0.00 | 0.00 | 0.00 | 2 | 1010.0 |
| 20260906065332 | 73 | 71 | 0.0 | 9.0 | 0.00 | 0.00 | 0.00 | 100 | 1010.0 |
| 20260906064823 | 73 | 69 | 0.0 | 9.0 | 0.00 | 0.00 | 0.00 | 100 | 1010.2 |
| 20260906064312 | 73 | 126 | 0.0 | 2.0 | 0.00 | 0.00 | 0.00 | 100 | 1010.1 |
| 20260906063809 | 73 | 126 | 0.0 | 0.0 | 0.00 | 0.00 | 0.00 | 100 | 1010.0 |
| 20260906063310 | 73 | 126 | 0.0 | 3.0 | 0.00 | 0.00 | 0.00 | 100 | 1010.1 |
| 20260906062808 | 73 | 126 | 0.0 | 3.0 | 0.00 | 0.00 | 0.00 | 100 | 1010.1 |
| 20260906062309 | 74 | 130 | 0.0 | 2.0 | 0.00 | 0.00 | 0.00 | 100 | 1010.1 |
| 20260906061801 | 74 | 116 | 0.0 | 0.0 | 0.00 | 0.00 | 0.00 | 100 | 1010.2 |
| 20260906061256 | 75 | 116 | 0.0 | 0.0 | 0.00 | 0.00 | 0.00 | 100 | 1010.1 |
| 20260906060745 | 75 | 116 | 0.0 | 0.0 | 0.00 | 0.00 | 0.00 | 100 | 1010.1 |
| 20260906060242 | 75 | 116 | 0.0 | 0.0 | 0.00 | 0.00 | 0.00 | 100 | 1010.2 |
| 20260906055725 | 75 | 116 | 0.0 | 0.0 | 0.00 | 0.00 | 0.00 | 100 | 1010.2 |
| 20260906055507 | 75 | 116 | 0.0 | 0.0 | 0.00 | 0.00 | 0.00 | 100 | 1010.3 |
| 20260906054704 | 75 | 116 | 0.0 | 0.0 | 0.00 | 0.00 | 0.00 | 100 | 1010.3 |
| 20260906054203 | 75 | 116 | 0.0 | 0.0 | 0.00 | 0.00 | 0.00 | 100 | 1010.3 |
| 20260906053645 | 75 | 116 | 0.0 | 0.0 | 0.00 | 0.00 | 0.00 | 100 | 1010.3 |
| 20260906053103 | 75 | 116 | 0.0 | 0.0 | 0.00 | 0.00 | 0.00 | 100 | 1010.4 |
| 20260906052541 | 75 | 116 | 0.0 | 3.0 | 0.00 | 0.00 | 0.00 | 100 | 1010.4 |
| 20260906052032 | 76 | 116 | 0.0 | 3.0 | 0.00 | 0.00 | 0.00 | 100 | 1010.5 |
| 20260906051515 | 76 | 84 | 0.0 | 0.0 | 0.00 | 0.00 | 0.00 | 100 | 1010.5 |
| 20260906051011 | 77 | 83 | 0.0 | 0.0 | 0.00 | 0.00 | 0.00 | 100 | 1010.6 |
| 20260906050508 | 77 | 83 | 0.0 | 0.0 | 0.00 | 0.00 | 0.00 | 100 | 1010.6 |
| 20260906050001 | 77 | 83 | 0.0 | 0.0 | 0.00 | 0.00 | 0.00 | 100 | 1010.6 |
| 20260906045451 | 77 | 83 | 0.0 | 0.0 | 0.00 | 0.00 | 0.00 | 100 | 1010.6 |
| 20260906044946 | 77 | 83 | 0.0 | 0.0 | 0.00 | 0.00 | 0.00 | 100 | 1010.6 |
| 20260906044411 | 77 | 83 | 0.0 | 0.0 | 0.00 | 0.00 | 0.00 | 100 | 1010.6 |
| 20260906044115 | 77 | 83 | 0.0 | 0.0 | 0.00 | 0.00 | 0.00 | 100 | 1010.6 |
| 20260906043337 | 77 | 83 | 0.0 | 0.0 | 0.00 | 0.00 | 0.00 | 100 | 1010.6 |
| 20260906042824 | 77 | 83 | 0.0 | 0.0 | 0.00 | 0.00 | 0.00 | 100 | 1010.5 |
| 20260906042325 | 77 | 83 | 0.0 | 0.0 | 0.00 | 0.00 | 0.00 | 100 | 1010.5 |
| 20260906041759 | 77 | 83 | 0.0 | 7.0 | 0.00 | 0.00 | 0.00 | 100 | 1010.7 |
| 20260906041455 | 77 | 82 | 0.0 | 7.0 | 0.00 | 0.00 | 0.00 | 100 | 1010.7 |
| 20260906040735 | 78 | 178 | 0.0 | 1.0 | 0.00 | 0.00 | 0.00 | 100 | 1010.6 |
| 20260906040216 | 78 | 178 | 0.0 | 0.0 | 0.00 | 0.00 | 0.00 | 100 | 1010.7 |
| 20260906035713 | 78 | 178 | 0.0 | 0.0 | 0.00 | 0.00 | 0.00 | 100 | 1010.6 |
| 20260906035210 | 78 | 178 | 0.0 | 0.0 | 0.00 | 0.00 | 0.00 | 100 | 1010.7 |
| 20260906034702 | 78 | 178 | 0.0 | 0.0 | 0.00 | 0.00 | 0.00 | 100 | 1010.7 |
| 20260906034201 | 78 | 178 | 0.0 | 0.0 | 0.00 | 0.00 | 0.00 | 100 | 1010.6 |
| 20260906033702 | 78 | 178 | 0.0 | 0.0 | 0.00 | 0.00 | 0.00 | 100 | 1010.6 |
| 20260906033148 | 78 | 178 | 0.0 | 0.0 | 0.00 | 0.00 | 0.00 | 100 | 1010.8 |
| 20260906032648 | 78 | 178 | 0.0 | 0.0 | 0.00 | 0.00 | 0.00 | 100 | 1010.9 |
| 20260906032143 | 78 | 178 | 0.0 | 0.0 | 0.00 | 0.00 | 0.00 | 100 | 1010.8 |
| 20260906031633 | 78 | 178 | 0.0 | 0.0 | 0.00 | 0.00 | 0.00 | 100 | 1010.7 |
| 20260906031123 | 78 | 178 | 0.0 | 0.0 | 0.00 | 0.00 | 0.00 | 100 | 1010.7 |
| 20260906030627 | 78 | 178 | 0.0 | 0.0 | 0.00 | 0.00 | 0.00 | 100 | 1010.7 |
| 20260906030115 | 78 | 178 | 0.0 | 0.0 | 0.00 | 0.00 | 0.00 | 100 | 1010.7 |
| 20260906025604 | 78 | 178 | 0.0 | 0.0 | 0.00 | 0.00 | 0.00 | 100 | 1010.7 |
| 20260906025317 | 78 | 178 | 0.0 | 0.0 | 0.00 | 0.00 | 0.00 | 100 | 1010.7 |
| 20260906024538 | 77 | 178 | 0.0 | 0.0 | 0.00 | 0.00 | 0.00 | 100 | 1010.6 |
| 20260906024037 | 77 | 178 | 0.0 | 0.0 | 0.00 | 0.00 | 0.00 | 100 | 1010.8 |
| 20260906023528 | 77 | 178 | 0.0 | 0.0 | 0.00 | 0.00 | 0.00 | 100 | 1010.8 |
| 20260906023013 | 77 | 178 | 0.0 | 0.0 | 0.00 | 0.00 | 0.00 | 100 | 1010.8 |
| 20260906022510 | 77 | 178 | 0.0 | 0.0 | 0.00 | 0.00 | 0.00 | 100 | 1010.7 |
| 20260906022004 | 77 | 178 | 0.0 | 0.0 | 0.00 | 0.00 | 0.00 | 100 | 1010.7 |
| 20260906021743 | 77 | 178 | 0.0 | 0.0 | 0.00 | 0.00 | 0.00 | 100 | 1010.6 |
| 20260906021000 | 77 | 178 | 0.0 | 0.0 | 0.00 | 0.00 | 0.00 | 100 | 1010.6 |
| 20260906020504 | 77 | 178 | 0.0 | 0.0 | 0.00 | 0.00 | 0.00 | 100 | 1010.7 |
| 20260906015957 | 77 | 178 | 0.0 | 0.0 | 0.00 | 0.00 | 0.00 | 100 | 1010.6 |
| 20260906015947 | 77 | 178 | 0.0 | 0.0 | 0.00 | 0.00 | 0.00 | 100 | 1010.6 |
| 20260906014941 | 77 | 178 | 0.0 | 0.0 | 0.00 | 0.00 | 0.00 | 100 | 1010.5 |
| 20260906014438 | 77 | 178 | 0.0 | 0.0 | 0.00 | 0.00 | 0.00 | 100 | 1010.5 |
| 20260906014154 | 77 | 178 | 0.0 | 0.0 | 0.00 | 0.00 | 0.00 | 100 | 1010.4 |
| 20260906013412 | 77 | 178 | 0.0 | 0.0 | 0.00 | 0.00 | 0.00 | 100 | 1010.5 |
| 20260906012858 | 77 | 178 | 0.0 | 0.0 | 0.00 | 0.00 | 0.00 | 100 | 1010.5 |
| 20260906012354 | 77 | 178 | 0.0 | 0.0 | 0.00 | 0.00 | 0.00 | 100 | 1010.4 |
| 20260906012122 | 76 | 184 | 0.0 | 0.0 | 0.00 | 0.00 | 0.00 | 100 | 1010.1 |
| 20260906011339 | 76 | 184 | 0.0 | 1.0 | 0.00 | 0.00 | 0.00 | 100 | 1010.0 |
| 20260906010838 | 76 | 184 | 0.0 | 1.0 | 0.00 | 0.00 | 0.00 | 100 | 1010.0 |
| 20260906010327 | 76 | 184 | 0.0 | 0.0 | 0.00 | 0.00 | 0.00 | 100 | 1009.9 |
| 20260906005818 | 76 | 184 | 0.0 | 0.0 | 0.00 | 0.00 | 0.00 | 100 | 1009.9 |
| 20260906005321 | 76 | 184 | 0.0 | 0.0 | 0.00 | 0.00 | 0.00 | 100 | 1009.8 |
| 20260906004806 | 76 | 184 | 0.0 | 0.0 | 0.00 | 0.00 | 0.00 | 100 | 1009.8 |
| 20260906004306 | 77 | 184 | 0.0 | 0.0 | 0.00 | 0.00 | 0.00 | 100 | 1009.8 |
| 20260906004025 | 77 | 184 | 0.0 | 0.0 | 0.00 | 0.00 | 0.00 | 100 | 1009.7 |
| 20260906003258 | 77 | 184 | 0.0 | 0.0 | 0.00 | 0.00 | 0.00 | 100 | 1009.6 |
| 20260906002752 | 77 | 184 | 0.0 | 0.0 | 0.00 | 0.00 | 0.00 | 100 | 1009.6 |
| 20260906002528 | 77 | 184 | 0.0 | 0.0 | 0.00 | 0.00 | 0.00 | 100 | 1009.6 |
| 20260906002007 | 77 | 184 | 0.0 | 0.0 | 0.00 | 0.00 | 0.00 | 1 | 1009.7 |
| 20260906001513 | 77 | 184 | 0.0 | 0.0 | 0.00 | 0.00 | 0.00 | 100 | 1009.7 |
| 20260906000723 | 77 | 184 | 0.0 | 0.0 | 0.00 | 0.00 | 0.00 | 100 | 1009.5 |
| 20260906000221 | 77 | 184 | 0.0 | 0.0 | 0.00 | 0.00 | 0.00 | 100 | 1009.6 |
| 20260905235719 | 78 | 184 | 0.0 | 0.0 | 0.00 | 0.00 | 0.00 | 100 | 1009.6 |
| 20260905235207 | 78 | 184 | 0.0 | 0.0 | 0.00 | 0.00 | 0.00 | 100 | 1009.5 |
| 20260905234655 | 78 | 184 | 0.0 | 0.0 | 0.00 | 0.00 | 0.00 | 100 | 1009.5 |
| 20260905234149 | 78 | 184 | 0.0 | 0.0 | 0.00 | 0.00 | 0.00 | 100 | 1009.5 |
| 20260905233645 | 78 | 184 | 0.0 | 0.0 | 0.00 | 0.00 | 0.00 | 1 | 1009.5 |
| 20260905233131 | 78 | 184 | 0.0 | 0.0 | 0.00 | 0.00 | 0.00 | 3 | 1009.4 |
| 20260905232626 | 78 | 184 | 0.0 | 0.0 | 0.00 | 0.00 | 0.00 | 3 | 1009.5 |
| 20260905232101 | 78 | 184 | 0.0 | 0.0 | 0.00 | 0.00 | 0.00 | 4 | 1009.5 |
| 20260905231551 | 78 | 184 | 0.0 | 0.0 | 0.00 | 0.00 | 0.00 | 6 | 1009.5 |
| 20260905231041 | 78 | 184 | 0.0 | 0.0 | 0.00 | 0.00 | 0.00 | 8 | 1009.5 |
| 20260905230540 | 79 | 184 | 0.0 | 0.0 | 0.00 | 0.00 | 0.00 | 7 | 1009.5 |
| 20260905230028 | 79 | 184 | 0.0 | 0.0 | 0.00 | 0.00 | 0.00 | 6 | 1009.5 |
| 20260905225508 | 79 | 184 | 0.0 | 0.0 | 0.00 | 0.00 | 0.00 | 6 | 1009.4 |
| 20260905225003 | 80 | 184 | 0.0 | 0.0 | 0.00 | 0.00 | 0.00 | 6 | 1009.3 |
| 20260905224503 | 80 | 184 | 0.0 | 0.0 | 0.00 | 0.00 | 0.00 | 7 | 1009.3 |
| 20260905223955 | 80 | 184 | 0.0 | 0.0 | 0.00 | 0.00 | 0.00 | 4 | 1009.2 |
| 20260905223450 | 80 | 184 | 0.0 | 0.0 | 0.00 | 0.00 | 0.00 | 9 | 1009.2 |
| 20260905222952 | 80 | 184 | 0.0 | 0.0 | 0.00 | 0.00 | 0.00 | 10 | 1009.1 |
| 20260905222447 | 80 | 184 | 0.0 | 0.0 | 0.00 | 0.00 | 0.00 | 11 | 1009.1 |
| 20260905221930 | 81 | 184 | 0.0 | 1.0 | 0.00 | 0.00 | 0.00 | 12 | 1008.9 |
| 20260905221433 | 81 | 184 | 0.0 | 1.0 | 0.00 | 0.00 | 0.00 | 13 | 1008.9 |
| 20260905220914 | 81 | 184 | 0.0 | 0.0 | 0.00 | 0.00 | 0.00 | 14 | 1008.9 |
| 20260905220408 | 81 | 184 | 0.0 | 0.0 | 0.00 | 0.00 | 0.00 | 14 | 1008.9 |
| 20260905220141 | 81 | 184 | 0.0 | 0.0 | 0.00 | 0.00 | 0.00 | 16 | 1009.0 |
| 20260905215400 | 82 | 184 | 0.0 | 0.0 | 0.00 | 0.00 | 0.00 | 16 | 1008.9 |
| 20260905214852 | 82 | 184 | 0.0 | 0.0 | 0.00 | 0.00 | 0.00 | 16 | 1008.9 |
| 20260905214620 | 82 | 184 | 0.0 | 0.0 | 0.00 | 0.00 | 0.00 | 17 | 1009.0 |
| 20260905213838 | 82 | 184 | 0.0 | 0.0 | 0.00 | 0.00 | 0.00 | 17 | 1009.0 |
| 20260905213335 | 83 | 184 | 0.0 | 0.0 | 0.00 | 0.00 | 0.00 | 17 | 1009.0 |
| 20260905212835 | 83 | 184 | 0.0 | 0.0 | 0.00 | 0.00 | 0.00 | 18 | 1009.0 |
| 20260905212552 | 83 | 184 | 0.0 | 0.0 | 0.00 | 0.00 | 0.00 | 18 | 1008.9 |
| 20260905211821 | 83 | 184 | 0.0 | 2.0 | 0.00 | 0.00 | 0.00 | 18 | 1009.0 |
| 20260905211324 | 83 | 184 | 0.0 | 5.0 | 0.00 | 0.00 | 0.00 | 17 | 1009.0 |
| 20260905210822 | 83 | 184 | 0.0 | 5.0 | 0.00 | 0.00 | 0.00 | 18 | 1008.9 |
| 20260905210310 | 83 | 115 | 0.0 | 3.0 | 0.00 | 0.00 | 0.00 | 18 | 1008.9 |
| 20260905205802 | 83 | 340 | 0.0 | 5.0 | 0.00 | 0.00 | 0.00 | 17 | 1008.8 |
| 20260905205251 | 83 | 340 | 0.0 | 5.0 | 0.00 | 0.00 | 0.00 | 17 | 1008.8 |
| 20260905204748 | 83 | 338 | 0.0 | 2.0 | 0.00 | 0.00 | 0.00 | 16 | 1008.7 |
| 20260905204250 | 84 | 338 | 0.0 | 2.0 | 0.00 | 0.00 | 0.00 | 16 | 1008.6 |
| 20260905203744 | 84 | 338 | 0.0 | 2.0 | 0.00 | 0.00 | 0.00 | 14 | 1008.7 |
| 20260905203242 | 84 | 338 | 0.0 | 1.0 | 0.00 | 0.00 | 0.00 | 14 | 1008.7 |
| 20260905202737 | 84 | 337 | 0.0 | 1.0 | 0.00 | 0.00 | 0.00 | 13 | 1008.7 |
| 20260905202230 | 84 | 338 | 0.0 | 5.0 | 0.00 | 0.00 | 0.00 | 13 | 1008.6 |
| 20260905201736 | 84 | 337 | 0.0 | 5.0 | 0.00 | 0.00 | 0.00 | 12 | 1008.7 |
| 20260905201233 | 84 | 338 | 0.0 | 1.0 | 0.00 | 0.00 | 0.00 | 11 | 1008.6 |
| 20260905201224 | 83 | 337 | 0.0 | 3.0 | 0.00 | 0.00 | 0.00 | 9 | 1008.6 |
| 20260905200226 | 83 | 332 | 0.0 | 3.0 | 0.00 | 0.00 | 0.00 | 9 | 1008.6 |
| 20260905195726 | 83 | 332 | 0.0 | 2.0 | 0.00 | 0.00 | 0.00 | 8 | 1008.7 |
| 20260905195224 | 82 | 332 | 0.0 | 5.0 | 0.00 | 0.00 | 0.00 | 8 | 1008.6 |
| 20260905195004 | 82 | 332 | 0.0 | 5.0 | 0.00 | 0.00 | 0.00 | 6 | 1008.6 |
| 20260905194229 | 82 | 332 | 0.0 | 0.0 | 0.00 | 0.00 | 0.00 | 5 | 1008.5 |
| 20260905193717 | 82 | 332 | 0.0 | 6.0 | 0.00 | 0.00 | 0.00 | 4 | 1008.5 |
| 20260905193202 | 81 | 355 | 0.0 | 6.0 | 0.00 | 0.00 | 0.00 | 3 | 1008.5 |
| 20260905192702 | 81 | 115 | 0.0 | 0.0 | 0.00 | 0.00 | 0.00 | 3 | 1008.5 |
| 20260905192422 | 81 | 115 | 0.0 | 0.0 | 0.00 | 0.00 | 0.00 | 4 | 1008.5 |
| 20260905191640 | 81 | 115 | 0.0 | 0.0 | 0.00 | 0.00 | 0.00 | 4 | 1008.7 |
| 20260905191135 | 81 | 115 | 0.0 | 0.0 | 0.00 | 0.00 | 0.00 | 3 | 1008.6 |
| 20260905190629 | 81 | 115 | 0.0 | 1.0 | 0.00 | 0.00 | 0.00 | 2 | 1008.5 |
| 20260905190128 | 82 | 115 | 0.0 | 1.0 | 0.00 | 0.00 | 0.00 | 100 | 1008.3 |
| 20260905185624 | 82 | 164 | 0.0 | 0.0 | 0.00 | 0.00 | 0.00 | 100 | 1008.4 |
| 20260905185105 | 82 | 164 | 0.0 | 1.0 | 0.00 | 0.00 | 0.00 | 100 | 1008.6 |
| 20260905184607 | 82 | 164 | 0.0 | 1.0 | 0.00 | 0.00 | 0.00 | 100 | 1008.8 |
| 20260905184109 | 82 | 173 | 0.0 | 0.0 | 0.00 | 0.00 | 0.00 | 100 | 1009.0 |
| 20260905183557 | 81 | 173 | 0.0 | 0.0 | 0.00 | 0.00 | 0.00 | 100 | 1009.1 |
| 20260905183325 | 81 | 173 | 0.0 | 0.0 | 0.00 | 0.00 | 0.00 | 100 | 1009.3 |
| 20260905182548 | 82 | 173 | 0.0 | 0.0 | 0.00 | 0.00 | 0.00 | 100 | 1009.6 |
| 20260905182038 | 82 | 173 | 0.0 | 0.0 | 0.00 | 0.00 | 0.00 | 100 | 1009.8 |
| 20260905181534 | 82 | 173 | 0.0 | 0.0 | 0.00 | 0.00 | 0.00 | 100 | 1009.9 |
| 20260905181310 | 81 | 173 | 0.0 | 0.0 | 0.00 | 0.00 | 0.00 | 100 | 1010.0 |
| 20260905180518 | 81 | 173 | 0.0 | 0.0 | 0.00 | 0.00 | 0.00 | 100 | 1010.2 |
| 20260905180007 | 81 | 173 | 0.0 | 0.0 | 0.00 | 0.00 | 0.00 | 100 | 1010.4 |
| 20260905175506 | 81 | 173 | 0.0 | 0.0 | 0.00 | 0.00 | 0.00 | 100 | 1010.4 |
| 20260905175006 | 81 | 173 | 0.0 | 0.0 | 0.00 | 0.00 | 0.00 | 100 | 1010.4 |
| 20260905174440 | 81 | 173 | 0.0 | 0.0 | 0.00 | 0.00 | 0.00 | 100 | 1010.5 |
| 20260905173939 | 81 | 173 | 0.0 | 0.0 | 0.00 | 0.00 | 0.00 | 100 | 1010.4 |
| 20260905173435 | 81 | 173 | 0.0 | 0.0 | 0.00 | 0.00 | 0.00 | 100 | 1010.4 |
| 20260905173202 | 81 | 173 | 0.0 | 0.0 | 0.00 | 0.00 | 0.00 | 100 | 1010.5 |
| 20260905172638 | 81 | 173 | 0.0 | 0.0 | 0.00 | 0.00 | 0.00 | 100 | 1010.5 |
| 20260905171908 | 81 | 173 | 0.0 | 0.0 | 0.00 | 0.00 | 0.00 | 100 | 1010.4 |
| 20260905171408 | 82 | 173 | 0.0 | 0.0 | 0.00 | 0.00 | 0.00 | 100 | 1010.4 |
| 20260905171147 | 82 | 173 | 0.0 | 0.0 | 0.00 | 0.00 | 0.00 | 100 | 1010.4 |
| 20260905170403 | 82 | 173 | 0.0 | 1.0 | 0.00 | 0.00 | 0.00 | 100 | 1010.5 |
| 20260905165854 | 82 | 173 | 0.0 | 1.0 | 0.00 | 0.00 | 0.00 | 100 | 1010.6 |
| 20260905165352 | 82 | 175 | 0.0 | 3.0 | 0.00 | 0.00 | 0.00 | 100 | 1010.6 |
| 20260905164852 | 82 | 175 | 0.0 | 3.0 | 0.00 | 0.00 | 0.00 | 100 | 1010.5 |
| 20260905164348 | 82 | 174 | 0.0 | 0.0 | 0.00 | 0.00 | 0.00 | 100 | 1010.4 |
| 20260905163842 | 82 | 174 | 0.0 | 0.0 | 0.00 | 0.00 | 0.00 | 100 | 1010.4 |
| 20260905163344 | 82 | 174 | 0.0 | 0.0 | 0.00 | 0.00 | 0.00 | 100 | 1010.3 |
| 20260905162840 | 82 | 174 | 0.0 | 1.0 | 0.00 | 0.00 | 0.00 | 100 | 1010.1 |
| 20260905162327 | 82 | 174 | 0.0 | 1.0 | 0.00 | 0.00 | 0.00 | 100 | 1010.1 |
| 20260905161823 | 82 | 173 | 0.0 | 0.0 | 0.00 | 0.00 | 0.00 | 100 | 1010.1 |
| 20260905161533 | 82 | 174 | 0.0 | 0.0 | 0.00 | 0.00 | 0.00 | 100 | 1010.2 |
| 20260905161419 | 82 | 174 | 0.0 | 0.0 | 0.00 | 0.00 | 0.00 | 100 | 1010.1 |
| 20260905160304 | 82 | 174 | 0.0 | 1.0 | 0.00 | 0.00 | 0.00 | 100 | 1010.2 |
| 20260905160253 | 82 | 174 | 0.0 | 2.0 | 0.00 | 0.00 | 0.00 | 100 | 1010.3 |
| 20260905155241 | 82 | 173 | 0.0 | 5.0 | 0.00 | 0.00 | 0.00 | 100 | 1010.2 |
| 20260905154738 | 82 | 175 | 0.0 | 5.0 | 0.00 | 0.00 | 0.00 | 100 | 1010.3 |
| 20260905154229 | 82 | 107 | 0.0 | 5.0 | 0.00 | 0.00 | 0.00 | 100 | 1010.4 |
| 20260905153731 | 83 | 12 | 0.0 | 5.0 | 0.00 | 0.00 | 0.00 | 100 | 1010.5 |
| 20260905153222 | 83 | 320 | 0.0 | 3.0 | 0.00 | 0.00 | 0.00 | 100 | 1010.5 |
| 20260905152208 | 83 | 317 | 0.0 | 2.0 | 0.00 | 0.00 | 0.00 | 100 | 1010.6 |
| 20260905152155 | 83 | 315 | 0.0 | 4.0 | 0.00 | 0.00 | 0.00 | 100 | 1010.5 |
| 20260905151204 | 83 | 43 | 0.0 | 4.0 | 0.00 | 0.00 | 0.00 | 100 | 1010.6 |
| 20260905150657 | 83 | 307 | 0.0 | 1.0 | 0.00 | 0.00 | 0.00 | 100 | 1010.5 |
| 20260905150157 | 83 | 340 | 0.0 | 3.0 | 0.00 | 0.00 | 0.00 | 100 | 1010.5 |
| 20260905145655 | 83 | 340 | 0.0 | 1.0 | 0.00 | 0.00 | 0.00 | 100 | 1010.6 |
| 20260905145157 | 84 | 339 | 0.0 | 3.0 | 0.00 | 0.00 | 0.00 | 100 | 1010.7 |
| 20260905144657 | 84 | 340 | 0.0 | 7.0 | 0.00 | 0.00 | 0.00 | 100 | 1010.5 |
| 20260905144158 | 85 | 338 | 0.0 | 7.0 | 0.00 | 0.00 | 0.00 | 100 | 1010.4 |
| 20260905143653 | 85 | 271 | 0.0 | 3.0 | 0.00 | 0.00 | 0.00 | 100 | 1010.2 |
| 20260905143142 | 85 | 209 | 0.0 | 3.0 | 0.00 | 0.00 | 0.00 | 100 | 1010.0 |
| 20260905142643 | 85 | 209 | 0.0 | 3.0 | 0.00 | 0.00 | 0.00 | 100 | 1009.9 |
| 20260905142336 | 85 | 210 | 0.0 | 5.0 | 0.00 | 0.00 | 0.00 | 100 | 1010.0 |
| 20260905141835 | 85 | 209 | 0.0 | 5.0 | 0.00 | 0.00 | 0.00 | 100 | 1010.1 |
| 20260905141103 | 85 | 105 | 0.0 | 5.0 | 0.00 | 0.00 | 0.00 | 100 | 1010.0 |
| 20260905140555 | 85 | 348 | 0.0 | 5.0 | 0.00 | 0.00 | 0.00 | 100 | 1009.9 |
| 20260905140059 | 84 | 349 | 0.0 | 2.0 | 0.00 | 0.00 | 0.00 | 100 | 1009.9 |
| 20260905135545 | 84 | 349 | 0.0 | 6.0 | 0.00 | 0.00 | 0.00 | 100 | 1010.0 |
| 20260905135047 | 84 | 348 | 0.0 | 6.0 | 0.00 | 0.00 | 0.00 | 100 | 1010.0 |
| 20260905134534 | 84 | 252 | 0.0 | 2.0 | 0.00 | 0.00 | 0.00 | 100 | 1010.0 |
| 20260905134028 | 84 | 252 | 0.0 | 6.0 | 0.00 | 0.00 | 0.00 | 100 | 1009.9 |
| 20260905133513 | 84 | 250 | 0.0 | 6.0 | 0.00 | 0.00 | 0.00 | 100 | 1010.1 |
| 20260905133006 | 84 | 15 | 0.0 | 1.0 | 0.00 | 0.00 | 0.00 | 100 | 1010.1 |
| 20260905132727 | 84 | 0 | 0.0 | 2.0 | 0.00 | 0.00 | 0.00 | 100 | 1009.9 |
| 20260905131948 | 84 | 0 | 0.0 | 6.0 | 0.00 | 0.00 | 0.00 | 100 | 1009.8 |
| 20260905131427 | 84 | 0 | 0.0 | 6.0 | 0.00 | 0.00 | 0.00 | 100 | 1009.8 |
| 20260905131150 | 83 | 271 | 0.0 | 4.0 | 0.00 | 0.00 | 0.00 | 100 | 1009.7 |
| 20260905130417 | 83 | 9 | 0.0 | 5.0 | 0.00 | 0.00 | 0.00 | 100 | 1009.6 |
| 20260905125915 | 83 | 5 | 0.0 | 5.0 | 0.00 | 0.00 | 0.00 | 100 | 1009.6 |
| 20260905125405 | 83 | 227 | 0.0 | 2.0 | 0.00 | 0.00 | 0.00 | 100 | 1009.7 |
| 20260905125117 | 83 | 223 | 0.0 | 5.0 | 0.00 | 0.00 | 0.00 | 100 | 1009.6 |
| 20260905124356 | 83 | 223 | 0.0 | 5.0 | 0.00 | 0.00 | 0.00 | 100 | 1009.7 |
| 20260905123857 | 83 | 323 | 0.0 | 5.0 | 0.00 | 0.00 | 0.00 | 100 | 1009.7 |
| 20260905123343 | 82 | 215 | 0.0 | 5.0 | 0.00 | 0.00 | 0.00 | 100 | 1009.6 |
| 20260905122841 | 82 | 258 | 0.0 | 2.0 | 0.00 | 0.00 | 0.00 | 100 | 1009.6 |
| 20260905122354 | 82 | 81 | 0.0 | 1.0 | 0.00 | 0.00 | 0.00 | 100 | 1009.7 |
| 20260905121842 | 82 | 79 | 0.0 | 1.0 | 0.00 | 0.00 | 0.00 | 100 | 1009.7 |
| 20260905121324 | 82 | 333 | 0.0 | 3.0 | 0.00 | 0.00 | 0.00 | 100 | 1009.6 |
| 20260905120809 | 82 | 333 | 0.0 | 4.0 | 0.00 | 0.00 | 0.00 | 100 | 1009.6 |
| 20260905120302 | 82 | 320 | 0.0 | 4.0 | 0.00 | 0.00 | 0.00 | 100 | 1009.6 |
| 20260905120022 | 82 | 320 | 0.0 | 4.0 | 0.00 | 0.00 | 0.00 | 100 | 1009.5 |
| 20260905115245 | 82 | 312 | 1.0 | 8.0 | 0.00 | 0.00 | 0.00 | 100 | 1009.5 |
| 20260905114747 | 81 | 294 | 1.0 | 8.0 | 0.00 | 0.00 | 0.00 | 100 | 1009.4 |
| 20260905114508 | 81 | 318 | 1.0 | 4.0 | 0.00 | 0.00 | 0.00 | 100 | 1009.4 |
| 20260905113745 | 0 | 0.0 | 0.0 | 0.00 | 0.00 | 0.00 | 1009.4 | ||
| 20260905113201 | 0 | 0.0 | 0.0 | 0.00 | 0.00 | 0.00 | 1009.3 | ||
| 20260905112842 | 0 | 0.0 | 0.0 | 0.00 | 0.00 | 0.00 | 1009.3 | ||
| 20260905112028 | 0 | 0.0 | 0.0 | 0.00 | 0.00 | 0.00 | 1009.2 | ||
| 20260905111445 | 0 | 0.0 | 0.0 | 0.00 | 0.00 | 0.00 | 1009.2 | ||
| 20260905110900 | 0 | 0.0 | 0.0 | 0.00 | 0.00 | 0.00 | 1009.1 | ||
| 20260905110319 | 0 | 0.0 | 0.0 | 0.00 | 0.00 | 0.00 | 1009.1 | ||
| 20260905105737 | 0 | 0.0 | 0.0 | 0.00 | 0.00 | 0.00 | 1008.9 | ||
| 20260905105208 | 0 | 0.0 | 0.0 | 0.00 | 0.00 | 0.00 | 1008.9 | ||
| 20260905104704 | 0 | 0.0 | 0.0 | 0.00 | 0.00 | 0.00 | 1009.0 | ||
| 20260905104132 | 0 | 0.0 | 0.0 | 0.00 | 0.00 | 0.00 | 1008.9 | ||
| 20260905103610 | 0 | 0.0 | 0.0 | 0.00 | 0.00 | 0.00 | 1008.8 | ||
| 20260905103337 | 0 | 0.0 | 0.0 | 0.00 | 0.00 | 0.00 | 1008.7 | ||
| 20260905102607 | 0 | 0.0 | 0.0 | 0.00 | 0.00 | 0.00 | 1008.6 | ||
| 20260905102106 | 0 | 0.0 | 0.0 | 0.00 | 0.00 | 0.00 | 1008.6 | ||
| 20260905101608 | 0 | 0.0 | 0.0 | 0.00 | 0.00 | 0.00 | 1008.5 | ||
| 20260905101106 | 0 | 0.0 | 0.0 | 0.00 | 0.00 | 0.00 | 1008.5 | ||
| 20260905100820 | 0 | 0.0 | 6.0 | 0.00 | 0.00 | 0.00 | 1008.5 | ||
| 20260905100106 | 80 | 34 | 1.0 | 6.0 | 0.00 | 0.00 | 0.00 | 100 | 1008.4 |
| 20260905095549 | 80 | 34 | 1.0 | 6.0 | 0.00 | 0.00 | 0.00 | 100 | 1008.3 |
| 20260905095022 | 80 | 34 | 1.0 | 6.0 | 0.00 | 0.00 | 0.00 | 100 | 1008.4 |
| 20260905094518 | 80 | 332 | 1.0 | 6.0 | 0.00 | 0.00 | 0.00 | 100 | 1008.3 |
| 20260905094242 | 80 | 10 | 1.0 | 6.0 | 0.00 | 0.00 | 0.00 | 100 | 1008.4 |
| 20260905093513 | 80 | 253 | 0.0 | 5.0 | 0.00 | 0.00 | 0.00 | 100 | 1008.3 |
| 20260905093236 | 80 | 240 | 0.0 | 3.0 | 0.00 | 0.00 | 0.00 | 100 | 1008.4 |
| 20260905092509 | 80 | 227 | 0.0 | 5.0 | 0.00 | 0.00 | 0.00 | 100 | 1008.4 |
| 20260905092000 | 79 | 69 | 0.0 | 5.0 | 0.00 | 0.00 | 0.00 | 100 | 1008.3 |
| 20260905091452 | 79 | 350 | 0.0 | 6.0 | 0.00 | 0.00 | 0.00 | 100 | 1008.3 |